TimeCST,TemperatureF,Dew PointF,Humidity,Sea Level PressureIn,VisibilityMPH,Wind Direction,Wind SpeedMPH,Gust SpeedMPH,PrecipitationIn,Events,Conditions,WindDirDegrees,DateUTC
12:55 AM,35.2,27.5,73,30.36,10.0,SSE,4.6,-,N/A,,Clear,160,2013-01-19 06:55:00
1:55 AM,32.7,28.0,83,30.35,10.0,SSE,5.8,-,N/A,,Clear,160,2013-01-19 07:55:00
2:55 AM,36.5,27.1,69,30.34,10.0,SSE,3.5,-,N/A,,Clear,150,2013-01-19 08:55:00
3:55 AM,33.8,27.1,77,30.33,10.0,SE,3.5,-,N/A,,Clear,130,2013-01-19 09:55:00
4:55 AM,32.5,26.6,79,30.33,10.0,SSE,4.6,-,N/A,,Clear,150,2013-01-19 10:55:00
5:55 AM,32.2,27.3,82,30.33,10.0,SSE,4.6,-,N/A,,Clear,150,2013-01-19 11:55:00
6:55 AM,29.7,26.2,87,30.33,10.0,SSE,4.6,-,N/A,,Clear,150,2013-01-19 12:55:00
7:55 AM,32.9,29.7,88,30.34,10.0,South,5.8,-,N/A,,Clear,170,2013-01-19 13:55:00
8:55 AM,40.6,33.8,77,30.34,10.0,SSE,8.1,-,N/A,,Clear,160,2013-01-19 14:55:00
9:55 AM,46.6,34.5,63,30.36,10.0,South,6.9,-,N/A,,Clear,190,2013-01-19 15:55:00
10:55 AM,52.0,34.2,51,30.35,10.0,South,9.2,-,N/A,,Clear,190,2013-01-19 16:55:00
11:55 AM,56.3,33.1,41,30.32,10.0,SSW,8.1,-,N/A,,Clear,210,2013-01-19 17:55:00
12:17 PM,57.2,33.8,41,30.30,10.0,Variable,6.9,-,N/A,,Light Drizzle,0,2013-01-19 18:17:00
12:26 PM,57.2,32.0,38,30.29,10.0,SSW,8.1,-,N/A,,Clear,200,2013-01-19 18:26:00
12:55 PM,56.8,30.0,36,30.27,10.0,SSW,9.2,-,0.00,,Clear,200,2013-01-19 18:55:00
1:55 PM,59.5,26.8,29,30.25,10.0,South,8.1,-,N/A,,Clear,170,2013-01-19 19:55:00
2:55 PM,59.5,26.6,28,30.23,10.0,SSE,6.9,-,N/A,,Clear,160,2013-01-19 20:55:00
3:55 PM,60.1,29.5,31,30.22,10.0,South,6.9,-,N/A,,Clear,190,2013-01-19 21:55:00
4:55 PM,57.4,30.7,36,30.22,10.0,SE,4.6,-,N/A,,Clear,140,2013-01-19 22:55:00
5:55 PM,51.4,32.5,49,30.22,10.0,ESE,3.5,-,N/A,,Clear,120,2013-01-19 23:55:00
6:55 PM,47.1,33.4,59,30.23,10.0,SSE,3.5,-,N/A,,Clear,150,2013-01-20 00:55:00
7:55 PM,45.9,32.7,60,30.25,10.0,Calm,Calm,-,N/A,,Clear,0,2013-01-20 01:55:00
8:55 PM,40.5,32.2,72,30.25,10.0,SSE,4.6,-,N/A,,Clear,150,2013-01-20 02:55:00
9:55 PM,43.0,32.2,66,30.25,10.0,Calm,Calm,-,N/A,,Clear,0,2013-01-20 03:55:00
10:55 PM,40.3,32.7,74,30.26,10.0,South,4.6,-,N/A,,Clear,170,2013-01-20 04:55:00
11:55 PM,37.4,32.2,81,30.26,10.0,SSE,3.5,-,N/A,,Clear,160,2013-01-20 05:55:00